Regional Weather Roundup
Issued by NWS Wakefield, VA

Home | Current Version | Previous Version | Text Only | Print | Product List | Glossary Off
Versions: 1 2 3 4 5 6 7 8 9 10 11 12 13 14 15 16 17 18 19 20 21 22 23 24 25 26 27 28 29 30 31 32 33 34 35 36 37 38 39 40 41 42 43 44 45 46 47 48 49 50

000
ASUS41 KAKQ 300815
RWRAKQ

REGIONAL WEATHER ROUNDUP
NATIONAL WEATHER SERVICE WAKEFIELD VA
400 AM EDT SUN APR 30 2017

Note: "fair" indicates few or no clouds below 12,000 feet with no
significant weather and/or obstructions to visibility. * = Denotes
station may not report precipitation (e.g., rain,snow,etc.),
thunder or fog.

VAZ042-051-052>054-056-300900-
NORTHERN VIRGINIA

CITY           SKY/WX    TMP DP  RH WIND       PRES   REMARKS
WASH NATIONAL  PTCLDY    73  71  93 S7        30.07R
DULLES         PTCLDY    72  69  90 VRB3      30.07R
FORT BELVOIR   CLEAR     68  68 100 CALM      30.06S FOG
QUANTICO       CLEAR     71  70  96 S7        30.08R
FREDERICKSBRG* CLEAR     73  72  98 S3        30.08R
STAFFORD*      CLEAR     70  70 100 CALM      30.12R
WARRENTON      CLEAR     74  68  82 S3        30.07S
CULPEPER*      CLEAR     70  70  99 CALM      30.07F FOG
MANASSAS*        N/A     69  68  96 S5        30.06S
LEESBURG*      CLEAR     70  64  83 NE9       30.08S
WINCHESTER     CLEAR     64  61  88 CALM      30.07S
FRONT ROYAL*   SUNNY     64  64 100 CALM      30.06S
LURAY*         SUNNY     68  68 100 S5        30.07F
$$

VAZ048-049-060>072-079>083-300900-
CENTRAL AND SOUTH CENTRAL VIRGINIA

CITY           SKY/WX    TMP DP  RH WIND       PRES   REMARKS
RICHMOND       PTCLDY    71  70  96 S8        30.10S
CHESTERFIELD*  FAIR     N/A N/A N/A SW6       30.12S
PETERSBURG*    PTCLDY    71  68  91 SW6       30.12R
HANOVER        CLEAR     74  67  78 S7        30.11S
TAPPAHANNOCK*  CLEAR     73  73 100 S5        30.10S
QUINTON*       FAIR      72  72 100 S6        30.10S
CHARLOTTSVILLE CLEAR     73  70  90 SW3       30.07F
GORDONSVILLE*  FOG       68  68 100 CALM      30.08S VSB 1
ORANGE*        CLEAR     66  66 100 CALM      30.08S FOG
LOUISA*        CLEAR     75  72  88 S5        30.08S
BUMPASS*       FAIR      71  71 100 SW3       30.09S
FARMVILLE*     PTCLDY    73  70  91 SW6       30.09S
CREWE*         FAIR      72  72 100 CALM      30.11S
FORT PICKETT*  NOT AVBL
CHASE CITY*    FAIR      71  70  95 S3        30.13F
CLARKSVILLE*   FAIR      70  70 100 SW5       30.13S
SOUTH HILL*    CLOUDY    71  71  99 SW7       30.19S
LAWRENCEVILLE* CLOUDY    72  70  95 SW8       30.13S
EMPORIA*       PTCLDY    70  68  94 S3        30.15R
$$

VAZ088>098-300900-
SOUTHEAST VIRGINIA

CITY           SKY/WX    TMP DP  RH WIND       PRES   REMARKS
NORFOLK        CLEAR     73  69  87 SW12      30.12R
VIRGINIA BEACH CLEAR     72  67  84 SW9       30.12R
NORFOLK NAVAL  CLEAR     74  69  85 SW8       30.13S
WEST POINT*    CLEAR     70  68  93 CALM      30.13R
SALUDA*        FAIR      74  71  92 CALM      30.10R
NEWPORT NEWS   CLEAR     73  70  90 SW7       30.11S
LANGLEY AFB    CLEAR     73  71  92 S8        30.11S
FORT EUSTIS    CLEAR     73  70  91 S5        30.09S
WILLIAMSBURG*  CLEAR     75  72  88 CALM      30.12S
HR EXEC AP*    FAIR      72  66  83 SW7       30.11R
FRANKLIN*      PTCLDY    71  68  90 SW6       30.14R
US460-WAKEFLD  CLEAR     72  70  93 SW7       30.12S
$$

VAZ020-022-025-037-045-300900-
WEST CENTRAL AND SOUTHWEST VIRGINIA

CITY           SKY/WX    TMP DP  RH WIND       PRES   REMARKS
STAUNTON*      CLEAR     64  62  95 SW3       30.12S FOG
WAYNESBORO*    SUNNY     69  68  95 CALM      30.11S
HOT SPRINGS VA CLEAR     63  57  82 SW9G16    30.22F
LYNCHBURG      PTCLDY    67  66  97 S3        30.13R
DANVILLE       MOCLDY    68  67  96 CALM      30.13S
SOUTH BOSTON*  FAIR      70  69  95 S3        30.13S
MARTINSVILLE   PTCLDY    65  64  96 CALM      30.15S FOG
ROANOKE        CLEAR     73  65  75 CALM      30.12F
BLACKSBURG     PTCLDY    65  63  92 CALM      30.18S
DUBLIN*        MOCLDY    69  62  77 CALM      30.17R
MARION*        MOCLDY    65  63  92 CALM      30.18S
HILLSVILLE*    CLOUDY    67  66  96 S3        30.17S
RICHLANDS*     FAIR      70  59  67 S5        30.14S
WISE*          CLEAR     70  59  68 S12       30.12F
ABINGDON*      CLEAR     66  61  85 CALM      30.12S
$$

MDZ021>025-VAZ099-100-300900-
SOUTHERN MARYLAND AND THE DELMARVA PENINSULA

CITY           SKY/WX    TMP DP  RH WIND       PRES   REMARKS
PATUXENT RIVER CLEAR     75  72  90 SW7       30.08R
BAY BRIDGE APT CLEAR     70  68  94 CALM      30.08R FOG
LEONARDTOWN    CLEAR     73  68  83 SW5       30.10S
DOVER          MOCLDY    71  71 100 NE9       30.10R
GEORGETOWN     CLEAR     71  68  90 CALM      30.10R FOG
EASTON         CLEAR     73  70  89 CALM      30.12R
CAMBRIDGE        N/A     70  70 100 SE5       30.09R FOG
SALISBURY      CLEAR     73  71  93 SW5       30.10R
OCEAN CITY     CLEAR     69  67  93 SW5       30.11R FOG
WALLOPS ISLAND CLEAR     68  68 100 S3        30.11R FOG
ACCOMACK*      CLEAR     74  71  89 SW7       30.11R
$$

NCZ012>017-030>032-300900-
NORTH CENTRAL AND EASTERN NORTH CAROLINA

CITY           SKY/WX    TMP DP  RH WIND       PRES   REMARKS
ROANOKE RAPIDS FAIR      70  70 100 S7        30.14S
RALEIGH        MOCLDY    72  69  90 SW10      30.15F
ELIZABETH CITY PTCLDY    71  70  96 SW13      30.14S
AHOSKIE*         N/A     70  68  93 S6        30.14F
EDENTON*       PTCLDY    73  69  89 SW12      30.16S
CURRITUCK*     PTCLDY    71  71 100 SW5       30.15S
KILL DEVIL HLS PTCLDY    72  69  90 CALM      30.15R
MANTEO         PTCLDY    72  69  90 SW12      30.16S
CAPE HATTERAS  PTCLDY    72  70  93 SW12      30.19R FOG
TARBORO*       NOT AVBL
GOLDSBORO      CLOUDY    72  72 100 SW8       30.16S
WASHINGTON     MOCLDY    70  69  96 S6        30.18S
GREENVILLE     CLOUDY    72  70  94 SW7       30.18S
NEW BERN       MOCLDY    70  70 100 S3        30.20S
WILMINGTON     CLOUDY    72  70  93 S7        30.18S
$$

VAZ048-300900-
ELSEWHERE

CITY           SKY/WX    TMP DP  RH WIND       PRES   REMARKS
HARRISBURG PA  PTCLDY    64  58  80 E8        30.12R
BALTIMORE      PTCLDY    71  66  84 E8        30.08R
ANNAPOLIS      CLEAR     70  70 100 CALM      30.07R FOG
ANDREWS AFB    CLEAR     72  69  90 S7        30.07R
PHILADELPHIA   MOCLDY    68  56  65 NE7       30.14R
HENDERSON NC   MOCLDY    69  67  93 SW9       30.15S
GREENSBORO     MOCLDY    69  68  96 S10       30.14S
ROCKY MOUNT    MOCLDY    70  70 100 S7        30.16S
$$

VAZ100-300900-
MARINE

STATION/POSITION TIME  TEMP    WIND        PRES    WAVE   SWELL
                       AIR SEA DIR/SP/G            HT/PER HT/PER
                 (UTC) (F)     (DEG/KT/KT) (MB)    (FT/S) (FT/S)
CAPE MAY NJ      0748   72 60   70/  7/ 11 1019.2R
LEWES DE         0742   69 61  110/  2/  2 1018.9R
15NM E FENWICK I 0750   61 58  190/  8/ 10 1020.0R   3/ 6   3/ 6
OCEAN-CITY-INLET 0742   59 54  190/  5/  7 1019.8R
WACHAPREAGUE VA  0742   72 74  210/  6/  9 1019.0R
THOMAS POINT MD  0800   69 62   50/  6/  6   N/A
GOOSES REEF MD   0800   71 59  260/  6/  8 1019.1
COVE POINT MD    0742   77     270/  8/ 14 1018.9S
SOLOMONS ISLAND  0748   72 63  230/ 10/ 12   N/A
BISHOPS HEAD MD  0748   71 72  170/  5/  6 1019.5R
PINEY POINT MD   0748          250/  2/  3   N/A
POTOMAC MD       0800   70 65  220/  4/  6 1017.9    1
CAMBRIDGE MD     0742   73 68                N/A
LEWISETTA VA     0742   75 72  230/ 11/ 13 1018.4R
RAPPAHANNOCK LGT 0748          190/ 11/ 12 1020.1R
STINGRAY PT      0750   69     190/  2/  2 1019.4R
YORK RVR RNG VA  0742   73     230/ 11/ 13 1018.8F
YORKTOWN VA      0742   74 67  210/ 10/ 13 1018.9S
JAMESTOWN VA     0800   74 72  200/  4/  6   N/A     0
DOMINION TERM VA 0742   72     230/  9/  9 1019.9F
KIPTOPEKE VA     0748      66  170/  4/  5   N/A
CHES BAY BRIDGE  0742   72 64  240/ 12/ 16 1019.5R
CAPE HENRY VA    0742   73     220/  8/ 14   N/A
WILLOUBY STN VA  0742   73     220/ 14/ 15 1020.7R
S CRANEY ISL VA  0742   73     210/  7/  9 1019.7S
CAPE HENRY BUOY  0742      63                N/A     2/ 8
1ST LANDING BUOY 0800   70 64              1020.0    1/ 2
CAPE CHARLES BUO 0751      62                N/A     2/ 6
64NM E OF VA BCH 0750   62 58  210/ 10/ 10 1021.6R   4/ 6   3/ 6
DUCK PIER NC     0742   72 57  230/ 10/ 15 1020.6S
44100 DUCK FRF   0705      62                N/A     2/ 7
44056 DUCK FRF   0730      59                N/A     1/ 7
OREGON INLET NC  0742   73 77  230/ 18/ 21 1021.1R
HATTERAS NC      0742   72 73  220/ 11/ 15 1021.9R
DIAMOND SHLS NC  0750   76 75  220/ 16/ 19 1022.1S   3/ 5   2/ 7
CAPE LOOKOUT NC  0800   72     210/  6/  8 1022.4R
$$



USA.gov is the U.S. government's official web portal to all federal, state and local government web resources and services.